Tracking 28790 objects as of 18-Apr-2024
HD Live streaming from Space Station
objects crossing your sky now

FENGYUN 1C DEB

Track FENGYUN 1C DEB now!
10-day predictions


NORAD ID: 29923
Int'l Code: 1999-025HV
Perigee: 846.2 km
Apogee: 874.4 km
Inclination: 98.7 °
Period: 102.0 minutes
Semi major axis: 7231 km
RCS: 0.0287 m2 (small)
Launch date: May 10, 1999
Source: People's Republic of China (PRC)
Launch site: Taiyaun Space Center, China (TSC)

Note: This is SATELLITE DEBRIS
Your satellite tracking list
Your tracking list is empty




NASA's NSSDC Master Catalog

Two Line Element Set (TLE):
1 29923U 99025HV  24109.51241312  .00002021  00000-0  11289-2 0  9993
2 29923  98.7106 128.8475 0019520  90.7348  72.9749 14.11815232887561
Source of the keplerian elements: AFSPC